916-712-3993

Buzz Marathon Results

Overall PlaceChipTimeFirst NameLast NameGenderGen PlaceTot GendAgeCityStateEventTot DivTotal PaceBibGunTime
15:51:37AnthonyDiBernardoM1331NipomoCAMarathon Walker613:25/M1475:51:57
26:14:52MichaelDavisM2363SalinasCAMarathon Walker614:18/M1446:14:57
36:16:14CynthiaAntangF1362ConcordCAMarathon Walker614:22/M1136:16:19
46:30:37SonjaNormannF2351Nevada CityCAMarathon Walker614:55/M8106:30:45
56:30:39RaquelHavenF3325Arroyo GrandCAMarathon Walker614:55/M1566:30:45
67:09:39DennisMoriM3370San LeandroCAMarathon Walker616:24/M8097:09:47
13:28:34LeahRogstadF11323ClaremontCAMarathon307:58/M1683:28:39
23:31:27GustavoGarciaM11745Paso RoblesCAMarathon308:04/M1543:31:30
33:43:27russellmetteerM21743RosevilleCAMarathon308:32/M1663:43:44
43:47:03JulieLandersF21328VisaliaCAMarathon308:40/M1603:47:10
54:00:03MelissaTashjianF31324ExeterCAMarathon309:10/M1754:00:10
64:05:04MihaiBuleaM31758San JoseCAMarathon309:21/M1374:05:14
74:09:26GregorySuM41737San JoseCAMarathon309:31/M1744:09:29
84:13:01JamesMahoneyM51732Santa ClaraCAMarathon309:39/M1654:13:05
94:14:46CarmellaCuvaF41346MontereyCAMarathon309:43/M1414:14:52
104:23:35MatthewBlyM61734Santa MariaCAMarathon3010:04/M1234:23:36
114:24:30ChristieFergusonF51353StocktonCAMarathon3010:06/M1524:24:34
124:26:06DanielLoderM71741Marathon3010:09/M7284:27:06
134:27:00ScottCoeM81760PortlandORMarathon3010:11/M1394:27:06
144:29:35PaulZicuisM91742DoylestownPAMarathon3010:17/M1764:29:50
154:40:42BrianKingM101741Arroyo GrandeCAMarathon3010:43/M1584:40:48
164:50:09PaulZimmerM111753OrangevaleCAMarathon3011:04/M1774:50:26
174:55:35RaymondMacavintaM121748Pleasant HillCAMarathon3011:17/M1644:55:49
185:07:57KristenSchulzF61335San Luis ObispoCAMarathon3011:45/M1695:08:09
195:12:22MariaAustero-MacavintaF71351Pleasant HillCAMarathon3011:55/M1185:12:35
205:12:28WilliamDowneyM131741RidgewoodNYMarathon3011:56/M1485:12:43
215:15:40CathyMinshallF81357Half Moon BayCAMarathon3012:03/M1675:15:52
225:17:44TessaLuceroF91353Canyon CountryCAMarathon3012:08/M1635:17:57
235:26:58PeterKrasaM141772Pebble BeachCAMarathon3012:29/M1595:27:03
245:34:37AdrienneSmithF101327Santa MariaCAMarathon3012:46/M1705:34:43
255:36:22DavidFieldM151751MurrietaCAMarathon3012:50/M1535:36:30
265:41:23WalterBullockM161760Marathon3013:02/M7245:42:57
275:44:46EyaFelixF111347Santa CruzSCAMarathon3013:10/M1505:45:04
286:35:33GrantDuboisM171735SebastopolCAMarathon3015:06/M1496:35:47
296:37:36ErinDavidsonF121331San FranciscoCAMarathon3015:11/M1436:37:50
306:37:36CAITLINJACKF131330San JoseCAMarathon3015:11/M1576:37:50
Overall PlaceChipTimeFirst NameLast NameGenderGen PlaceAgeCityStateTotal PaceBibGunTime
11:20:19RobertMeadM129TempletonCA6:08/M4201:20:20
21:21:14VictorHurtadoM235Santa MariaCA6:12/M4151:21:15
31:41:46MattBauerM333MontereyCA7:46/M4041:42:00
41:47:30LindaSignalF146Santa MariaCA8:12/M4401:47:34
51:47:45MatthewShuckM432AtascaderoCA8:14/M4381:47:47
61:48:09JonWinsteadM548Paso RoblesCA8:15/M4471:48:18
71:48:28PeteRandazzoM655MarinaCA8:17/M4271:48:34
81:53:49BrettRancadoreM734Morro BayCA8:41/M4261:53:51
91:54:46ManuelGarciaM854SacramentoCA8:46/M4111:55:08
102:00:52SolomonLeungM927PetalumaCA9:14/M4192:00:56
112:03:50GregBlockM1057PortlandOR9:27/M4062:04:17
122:05:12JohnPearsonM1139TempletonCA9:33/M4232:05:30
132:05:29TinaRobellaF248San Luis ObispoCA9:35/M4302:05:39
142:06:18MadilynRayF328VisaliaCA9:38/M4282:06:24
152:06:37SheryleOylerF440Paso RoblesCA9:40/M4222:06:42
162:06:39DebbieHorneF552Paso RoblesCA9:40/M4142:06:42
172:08:17LUISAVENDANOM1239Elk GroveCA9:48/M4022:08:20
182:09:15JoannaD'alfonsoF655TempletonCA9:52/M4092:09:19
192:10:54AshleeSackF737Canon CityCO10:00/M4342:10:57
202:14:39AmityDeJongF844Elk GroveCA10:17/M4102:14:46
212:20:09DonnaHamzaF948Arroyo GrandeCA10:42/M4132:20:14
222:23:07MargaretBrewingtonF1063AptosCA10:55/M4072:23:15
232:27:30ChrisTrautweinM1355RosevilleCA11:16/M4442:27:36
242:29:49RusselKodetM1464SalinasCA11:26/M4172:30:10
252:31:08AlysiaKilcreaseF1119Paso RoblesCA11:32/M4162:31:10
262:35:20lizclarkF1251BuelltonCA11:51/M4082:35:39
272:36:47WarrenRuhlM1558MontereyCA11:58/M4332:36:54
282:36:47LinRuhlF1357MontereyCA11:58/M4322:36:54
292:40:17JasonGillespieM1667Grover BeachCA12:14/M4122:40:33
302:47:28IvanVegaM1728NapaCA12:47/M4452:47:40
312:47:28SamanthaSchaeferF1427NapaCA12:47/M4372:47:40
322:50:36EveWickmanF1539Belvedere TiburonCA13:01/M4462:51:04
332:50:36AndreaBlockF1618PortlandOR13:01/M4052:51:04
343:12:53ThompsonLangeM1856Carmel By The SeaCA14:43/M4183:13:07
353:17:31StuartSargissonM1977CarmelCA15:05/M4363:17:51
363:27:50SusanSimpsonF1758San LeandroCA15:52/M4414:07:45
373:27:50NicoleBallietF1846AtascaderoCA15:52/M4034:07:45
383:28:00LisaSargissonF1976CarmelCA15:53/M4353:28:23
393:42:39DarleneMolinaF2031Hawaiian GardensCA17:00/M4213:42:51
Overall PlaceChipTimeFirst NameLast NameGenderGen PlaceAgeCityStateTotal PaceBibGunTime
138:24:00PepeGonzalezM124Paso RoblesCA6:12/M6338:26:00
253:02:00NicoleDaleF136Los OsosCA8:33/M6253:05:00
31:00:14CorrynHaynesF220Arroyo GrandeCA9:43/M641:00:20
41:00:32MichelleHowellF332Paso RoblesCA9:46/M661:00:39
51:02:31PatriciaJeffriesF449Paso RoblesCA10:05/M671:02:36
61:06:02AudreyBrouillardF544Paso RoblesCA10:39/M51:06:05
71:09:19AllenRushingM26411:11/M7291:09:24
81:11:10DeniseRicheyF648AtascaderoCA11:29/M711:11:18
91:13:47LindsayKinmanF728AtascaderoCA11:54/M691:13:49
101:13:56FrancesRushingF863Paso RoblesCA11:55/M721:14:01
111:19:44Rom RachelMahimerF937PacificaCA12:52/M701:19:49
121:21:06KatieBlyF1032Santa MariaCA13:05/M31:21:21
131:24:52BradKilcreaseM344Paso RoblesCA13:41/M681:24:59
141:32:31CynthiaSnowF1152Palo AltoCA14:55/M4421:32:52
151:32:35MarkPichelM458Palo AltoCA14:56/M4241:32:53
161:34:58LoriHicksF1261Paso RoblesCA15:19/M651:35:06
171:38:49KellyStainbrookF1355San MiguelCA15:56/M8131:38:58
Overall PlaceChipTimeFirst NameLast NameGenderGen PlaceAgeCityStateTotal PaceBibGunTime
124:13:00BenGarciaM113Paso RoblesCA7:49/M31224:14:00
229:26:00AbbyGarciaF111Paso RoblesCA9:30/M31329:28:00
329:44:00KimberlySilvaF252Los OsosCA9:35/M33129:50:00
429:59:00RichardWattsM266Morro BayCA9:40/M36030:04:00
530:07:00markmitchellM357Paso RoblesCA9:43/M32130:11:00
630:13:00SarahHewawitharanaF337San Luis ObispoCA9:45/M31630:24:00
730:55:00JOEHORNEM452Paso RoblesCA9:58/M31730:58:00
831:19:00KarenParkF463King CityCA10:06/M32531:23:00
931:37:00PatriciaSchiererF549King CityCA10:12/M33031:42:00
1032:14:00LaurenTaitF632Grover BeachCA10:24/M34532:26:00
1136:02:00BrianTjogasM559AtascaderoCA11:37/M34636:10:00
1237:07:00LorieNobleF761Morro BayCA11:58/M32437:14:00
1339:22:00SueMurrayF857AtascaderoCA12:42/M32339:28:00
1440:44:00ALANNARushingF924Paso RoblesCA13:08/M32940:48:00
1541:46:00PattiTringhamF1066Paso RoblesCA13:28/M35741:54:00
1641:49:00TomTringhamM664Paso RoblesCA13:29/M35841:59:00
1750:19:00AntonBlockM716PortlandOR16:14/M31050:45:00
1850:24:00RosemaryVilaF1155PortlandOR16:15/M35950:50:00
1951:26:00AnneWilsonF1240AtascaderoCA16:35/M39451:35:00
2056:01:00ConnieLundinF1351AtascaderoCA18:04/M31956:26:00
2156:02:00Betty JoBallietF1475AtascaderoCA18:05/M30656:27:00
221:06:59CatherineGlazeF1558BurlingameCA21:36/M3141:07:19
231:07:04CathyBianchiF1656AtascaderoCA21:38/M3091:07:29
241:07:08SherrelMitchellF1757FremontCA21:39/M3221:07:29
251:07:08PattiHaringF1860TucsonAZ21:39/M3151:07:25
261:07:10LauraSimmonsF1952BurlingameCA21:40/M3361:07:30
271:07:11Lt Col BarbaraBeeglesF2052Elk GroveCA21:40/M3081:07:30
281:07:12LauraPlantingF2150FremontCA21:41/M4251:07:30
Overall PlaceChipTimeFirst NameLast NameGenderGen PlaceAgeCityStateTotal PaceBib
18:48IanWinsteadM19Paso RoblesCA8:48/M939
29:55EllieGarciaF19Paso RoblesCA9:55/M922
311:13OwenWinsteadM211Paso RoblesCA11:13/M940
411:25AshtonWirkusM38Paso RoblesCA11:25/M948
511:26AzayahGatesM410Paso RoblesCA11:26/M715
616:17AndrewOrtizM54San MiguelCA16:17/M929
719:22StephanieCamposF2719:22/M731
819:22MariyahOrtizF37San MiguelCA19:22/M930
919:22CarissaMolinaF4519:22/M732
1019:22CesarCamposM61119:22/M730
Overall PlaceFirst NameLast NameChipTimeBibGenderAgeCityStateEventGen PlaceTotal PaceTot DivTot Gend
1AdolfoMachado8:181232M10Paso RoblesCAKids 1 Mile18:18/M1310
2SadieRichert8:251284F10Los OsosCAKids 1 Mile18:25/M133
3RonnieLay9:201223M12San MiguelCAKids 1 Mile29:20/M1310
4Angel JoelMartinez10:081246M7Paso RoblesCAKids 1 Mile310:08/M1310
5WestonRichert10:111290M8Los OsosCAKids 1 Mile410:11/M1310
6Irving GaelMartinez12:361267M8Paso RoblesCAKids 1 Mile512:36/M1310
7BrandonMonroy13:132347M0Kids 1 Mile613:13/M1310
8VincentMartinez14:131280M8San MiguelCAKids 1 Mile714:13/M1310
9JustinMartinez14:291268M9San MiguelCAKids 1 Mile814:29/M1310
10MirandaLay14:461219F9San MiguelCAKids 1 Mile214:46/M133
11DanteRuiz14:561297M9San MiguelCAKids 1 Mile914:56/M1310
12AdrianArrieta15:331209M7Paso RoblesCAKids 1 Mile1015:33/M1310
13FeliciaAlan15:551206F6Paso RoblesCAKids 1 Mile315:55/M133
Overall PlaceFirst NameLast NameChipTimeBibGenderAgeCityStateEventGen PlaceTotal PaceTot DivTot Gend
1GeoffSmith21:241167M35TracyCA5K16:54/M4516
2TimothyShort21:491146M54King CityCA5K27:02/M4516
3JennySmith24:13:001168F32TracyCA5K17:49/M4529
4JohnTiffin25:10:001173M69Los OsosCA5K38:07/M4516
5EdgarPalafox25:46:001139M12San MiguelCA5K48:19/M4516
6EfremMarble28:36:001132M8San MiguelCA5K59:14/M4516
7ChrisTrautwein28:54:001174M54RosevilleCA5K69:19/M4516
8DavidCoss29:04:001121M43Paso RoblesCA5K79:23/M4516
9JOEHORNE29:06:001131M51Paso RoblesCA5K89:23/M4516
10NathanBarto29:58:001116M46Grover BeachCA5K99:40/M4516
11AndrewBarto29:58:001115M13Grover BeachCA5K109:40/M4516
12KimberlySilva30:14:001147F51Los OsosCA5K29:45/M4529
13RichardWatts30:28:001175M65Morro BayCA5K119:50/M4516
14FrankAbel30:49:001103M64La PuenteCA5K129:56/M4516
15AmandaEvans31:22:001126F33lincolnCA5K310:07/M4529
16EmilyEckles32:38:001125F34San MiguelCA5K410:32/M4529
17SaraLynnSilver33:12:001148F32San Luis ObispoCA5K510:43/M4529
18MichelleClaassen33:28:001120F25Morro BayCA5K610:48/M4529
19AngenetteTiffin34:04:001171F25Los OsosCA5K710:59/M4529
20MaryAdlesh34:47:002342F5K811:13/M4529
21JenniferCampa34:54:001119F40San Luis ObispoCA5K911:15/M4529
22MichaelDaniels35:05:001124M29Shingle SpringsCA5K1311:19/M4516
23ManjinderBassi35:06:001117F27Shingle SpringsCA5K1011:19/M4529
24Ana LauraZavala39:31:001176F34GreenfieldCA5K1112:45/M4529
25MelodieBeard40:04:001118F43AtascaderoCA5K1212:55/M4529
26JenniferDaniels40:12:001123F31Paso RoblesCA5K1312:58/M4529
27JasonAbel40:12:001110M35San MiguelCA5K1412:58/M4516
28AlannaRushing40:52:001145F23Paso RoblesCA5K1413:11/M4529
29LyndsayRouzer-Squyres41:05:001144F34LancasterCA5K1513:15/M4529
30CharleeSquyres41:17:001170F8LancasterCA5K1613:19/M4529
31GabrielleSolleder43:32:001169F58Mountain ViewCA5K1714:03/M4529
32MeliaGoss45:15:001129F33Paso RoblesCA5K1814:36/M4529
33MistyOwens45:15:001138F35AtascaderoCA5K1914:36/M4529
34AleedaRamos45:17:001140F26AtascaderoCA5K2014:36/M4529
35CadenReese46:44:001143M10TempletonCA5K1515:05/M4516
36BrooklynnReese46:46:001142F9TempletonCA5K2115:05/M4529
37AdamReese46:46:001141M33TempletonCA5K1615:05/M4516
38IrmaCruz49:10:001122F51Los AngelesCA5K2215:52/M4529
39MelissaAbel52:42:001111F35San MiguelCA5K2317:00/M4529
40MelanieMiller54:51:001133F30AtascaderoCA5K2417:42/M4529
41LindaHicks54:53:001130F57TempletonCA5K2517:42/M4529
42FatimaArrieta57:45:001112F29Paso RoblesCA5K2618:38/M4529
43CatherineGlaze58:39:001128F57BurlingameCA5K2718:55/M4529
44LauraSimmons1:00:231149F51BurlingameCA5K2819:29/M4529
45SherrelMitchel1:00:241134F56FremontCA5K2919:29/M4529
Overall PlaceFirst NameLast NameChipTimeBibGenderAgeCityStateEventGen PlaceTotal PaceTot DivTot Gend
1AlanSquyres43:10:001343M35LancasterCA10K16:58/M2510
2JamesTaylor44:36:001344M41Paso RoblesCA10K27:12/M2510
3PatrickBolger53:01:002365M10K38:33/M2510
4KatieRodriguez56:22:001337F22Santa MariaCA10K19:05/M2515
5JuliaBolger57:41:002364F10K29:18/M2515
6LuisAvendano59:02:002341M10K49:31/M2510
7DebbieHorne59:26:001076F51Paso RoblesCA10K39:35/M2515
8SandyAndrade Jones1:01:221008F47SacramentoCA10K49:54/M2515
9KimPhillips1:05:001095F45Paso RoblesCA10K510:29/M2515
10SarahSwitzer1:08:542346F10K611:07/M2515
11AlishaDozier1:08:541037F31Paso RoblesCA10K711:07/M2515
12FrancesRushing1:10:091338F62Paso RoblesCA10K811:19/M2515
13EleanorKlock1:11:511083F16LemooreCA10K911:35/M2515
14DavidMolina1:12:591135M28Paso RoblesCA10K511:46/M2510
15YadiraMolina1:12:591136F34Paso RoblesCA10K1011:46/M2515
16BradKilcrease1:13:351078M43Paso RoblesCA10K611:52/M2510
17JaquelinCervantes1:13:561030F24King CityCA10K1111:55/M2515
18RobinZazueta1:15:331350F45Paso RoblesCA10K1212:11/M2515
19WilliamCote1:15:341031M73San Luis ObispoCA10K712:11/M2510
20AlexanderCervantes1:16:121023M27King CityCA10K812:17/M2510
21SteveRichey1:17:221334M46AtascaderoCA10K912:29/M2510
22TeresaWenzel1:23:231349F44AtascaderoCA10K1313:27/M2515
23JeffHodde1:23:241055M40San Luis ObispoCA10K1013:27/M2510
24LauraPlanting1:50:571100F49FremontCA10K1417:54/M2515
25ElisabethNybo1:55:321092F49Santa MariaCA10K1518:38/M2515
Overall PlaceFirst NameLast NameChipTimeBibGenderAgeCityStateEventGen PlaceTotal PaceTot DivTot Gend
1RobertMead1:22:101721M28TempletonCAHalf Marathon16:16/M3419
2JoseBarba1:29:331463M45WatsonvilleCAHalf Marathon26:50/M3419
3GustavoGarcia1:38:041498M44Paso RoblesCAHalf Marathon37:29/M3419
4MatthewShuck1:38:061736M31AtascaderoCAHalf Marathon47:29/M3419
5DennisBitetti1:47:051464M23AtascaderoCAHalf Marathon58:10/M3419
6JohnHumann1:48:391500M62Santa MariaCAHalf Marathon68:18/M3419
7RyanAdlesh1:55:501447M29Walnut CreekCAHalf Marathon78:51/M3419
8SaraSt Cyr1:56:251742F38San Luis ObispoCAHalf Marathon18:53/M3415
9DavidMorgan1:58:431725M52San FranciscoCAHalf Marathon89:04/M3419
10LindaSignal1:59:011737F45Santa MariaCAHalf Marathon29:05/M3415
11RitaOgden1:59:101726F44San FranciscoCAHalf Marathon39:06/M3415
12DanielSeemiller2:00:481735M56NewportORHalf Marathon99:13/M3419
13CamilleSommers2:00:481741F52VenturaCAHalf Marathon49:13/M3415
14LaurynFrancisco2:02:581495F32AtascaderoCAHalf Marathon59:23/M3415
15ClaytonJones2:06:021718M35Paso RoblesCAHalf Marathon109:37/M3419
16AmityDeJong2:07:031475F43Elk GroveCAHalf Marathon69:42/M3415
17BrettRancadore2:07:091730M33Morro BayCAHalf Marathon119:42/M3419
18LucasArmstrong2:09:532356MHalf Marathon129:55/M3419
19DevonCallahan2:12:182354M0Half Marathon1310:06/M3419
20CameronMontgomery2:12:321724M13San MiguelCAHalf Marathon1410:07/M3419
21MyrnaAlvarez2:14:141452F63Avila BeachCAHalf Marathon710:15/M3415
22AnthonyDiBernardo2:16:411489M30NipomoCAHalf Marathon1510:26/M3419
23ChristinaSchwandt2:18:141734F49Grover BeachCAHalf Marathon810:33/M3415
24ShaunTede2:20:032355MHalf Marathon1610:41/M3419
25DeniseRichey2:23:351731F47AtascaderoCAHalf Marathon910:58/M3415
26LeoFutch2:37:511497M62DodgeNDHalf Marathon1712:03/M3419
27MarkPeterson2:40:441727M55ClovisCAHalf Marathon1812:16/M3419
28LindsayKinman2:43:311719F27AtascaderoCAHalf Marathon1012:29/M3415
29JennyCameron2:44:271469F41Simi ValleyCAHalf Marathon1112:33/M3415
30NicoleBalliet2:45:151455F45AtascaderoderoCAHalf Marathon1212:37/M3415
31SaraAlan2:56:041448F33Paso RoblesCAHalf Marathon1313:26/M3415
32CharlesTrenbeth3:01:391744M65Morro BayCAHalf Marathon1913:52/M3419
33LauraMeillier3:06:501722F53OaklandCAHalf Marathon1414:16/M3415
34PamelaRogers3:08:121732F62SalinasCAHalf Marathon1514:22/M3415
Overall PlaceFirst NameLast NameChipTimeBibGenderGen PlaceTot GendTot DivAgeCityStateTotal PaceGunTime
1DavidCampa2:50:301180M1182341San Luis ObispoCA6:30/M2:50:32
2BenjaminWalker2:57:331197M2182329TempletonCA6:47/M2:57:34
3RussellMetteer3:56:371192M3182342RosevilleCA9:02/M3:56:55
4StanPacker4:11:051194M4182343Paso RoblesCA9:35/M4:11:08
5TracyPlaster4:11:421195M5182341OrangevaleCA9:36/M4:11:58
6JillRichert4:11:551196F152340Los OsosCA9:37/M4:11:59
7JanaHayashi4:13:051187F252322Arroyo GrandeCA9:40/M4:13:10
8JimMagill4:14:091190M6182369SaratogaCA9:42/M4:14:16
9JohnKlock4:19:401188M7182356LemooreCA9:55/M4:19:44
10MihaiBulea4:41:291177M8182357San JoseCA10:45/M4:41:36
11RandalChase4:43:451181M9182354Mountain ViewCA10:50/M4:43:51
12PaulZIMMER4:48:381198M10182352OrangevaleCA11:01/M4:48:55
13PeterCook4:57:271183M11182354Los AngelesCA11:21/M4:57:32
14KerryCaldwell4:57:321179F352346FresnoCA11:21/M4:57:34
15PeterKrasa5:06:101189M12182371Pebble BeachCA11:41/M5:06:35
16DavidField5:07:491185M13182350MurrietaCA11:45/M5:07:57
17LaurentMeillier5:10:271191M14182351OaklandCA11:51/M5:10:31
18EyaFelix5:19:581184F452346Santa CruzCA12:13/M5:20:07
19WalterBullock5:40:401178M15182359west sacramentoCA13:00/M5:41:05
20AlexChristensen5:53:161182M16182326East Palo AltoCA13:29/M5:53:25
21MichaelDavis6:56:182350M17182315:53/M6:58:08
22JulesGoldin7:02:241199F552339EncinoCA16:07/M7:02:38
23KentMoore7:42:021200M18182349RoswellGA17:38/M7:42:06
PlaceChipTimeFirstLastBibGenderAgeClassClass PosGen PlaceTotal PaceTot DivTot GendTot AG
118:01PepeGonzalez460M0M 0- 0115:49/M59299
221:58PedroMorfin462M0M 0- 0227:05/M59299
322:15TimShort447MM 0- 0337:12/M59299
422:16DanielCastro459MM 0- 0447:12/M59299
524:39:00JoshuaMeenach455MM 0- 0557:57/M59299
624:53:00BrettRancadore431M32M 1-99168:02/M592920
725:39:00SeanKing335M41M 1-99278:20/M592920
829:19:00KarenPark429F61F 1-99119:29/M593025
929:22:00JimmyTasio465M40M 1-99389:30/M592920
1029:26:00MatthewPerez263M0M 0- 0699:30/M59299
1129:32:00LourieJordan414F37F 1-99229:37/M593025
1229:33:00CaraLeandro448FF 0- 0139:35/M59305
1330:23:00AmandaLuquiz348FF 0- 0249:52/M59305
1430:28:00EmilyJoulfaian452FF 0- 0359:50/M59305
1530:32:00MarcosHidrogo413M43M 1-994109:54/M592920
1630:53:00KimberlySilva437F50F 1-993610:01/M593025
1731:11:00KathrynThane439F26F 1-994710:04/M593025
1831:11:00CynthiaGarcia410F26F 1-995810:04/M593025
1931:35:00ChristopherEvans407M36M 1-9951110:14/M592920
2032:11:00PatriciaSchierer435F47F 1-996910:25/M593025
2132:16:00AnneRichardson433F26F 1-9971010:25/M593025
2232:27:00DanielJimenez461M0M 0- 071210:28/M59299
2332:28:00LindsayKinman415F26F 1-9981110:30/M593025
2432:39:00JanMaurice417M43M 1-9961310:35/M592920
2533:18:00ElisaJoulfaian451FF 0- 041210:45/M59305
2633:24:00AndrewNeely450M22M 1-9971410:52/M592920
2733:26:00PamelaRicci432F54F 1-9991310:47/M593025
2834:50:00JaneeLucero416F37F 1-99101411:16/M593025
2934:56:00JeanniePalermo428F57F 1-99111511:20/M593025
3035:05:00StefanieTringham443F32F 1-99121611:21/M593025
3135:24:00LorieNoble426F59F 1-99131711:28/M593025
3236:02:00MATTHEWBARRON403M12M 1-9981511:41/M592920
3336:02:00DOMINICBARRON402M11M 1-9991611:41/M592920
3436:04:00RichardProkop430M60M 1-99101711:41/M592920
3536:28:00MOISESBARRON404M41M 1-99111811:50/M592920
3637:07:00FrankAbel355M0M 0- 081912:02/M59299
3737:12:00BethTibbs440F45F 1-99141812:05/M593025
3837:13:00KevinTibbs441M50M 1-99122012:05/M592920
3937:18:00BernisNichols423M45M 1-99132112:06/M592920
4037:18:00DavinNichols425M8M 1-99142212:06/M592920
4137:45:00JohnMullins334M43M 1-99152312:14/M592920
4237:55:00SavannahHallock412F29F 1-99151912:16/M593025
4338:27:00BradleyMerrill446M41M 1-99162412:27/M592920
4438:27:00RobertLee445M36M 1-99172512:27/M592920
4538:35:00PrisuliaHamanito350FF 0- 052012:29/M59305
4640:21:00LucindaKasenberg464F53F 1-99162113:02/M593025
4740:55:00ChotinanGlass449F30F 1-99172213:17/M593025
4841:01:00SarahSaxon434F32F 1-99182313:19/M593025
4941:01:00TomTringham444M62M 1-99182613:16/M592920
5041:19:00PattiTringham442F64F 1-99192413:21/M593025
5141:23:00JesusOsuna463M0M 0- 092713:26/M59299
5241:43:00MirandaFreeland409F17F 1-99202513:30/M593025
5341:43:00DarinFreeland408M53M 1-99192813:30/M592920
5444:42:00XIAODONGSUI438F46F 1-99212614:27/M593025
5551:25:00DanaNichols424F42F 1-99222716:40/M593025
5653:13:00YadiraMolina420F33F 1-99232817:19/M593025
5753:14:00NuviaMendoza Lyons418F29F 1-99242917:19/M593025
5853:14:00DavidMolina419M27M 1-99202917:19/M592920
5953:27:00TobinJohnson321F37F 1-99253017:19/M593025
PlaceChipTimeFirstLastBibGenderAgeClassClass PosGen PlaceTotal PaceTot DivTot GendTot AG
151:53:00GabeFenigsohn216M40M 1-99118:23/M27107
252:40:00TarynJamison319F36F 1-99118:31/M271717
354:38:00KaraKasenberg337F25F 1-99228:50/M271717
455:11:00DavidFenigsohn313M44M 1-99228:55/M27107
555:34:00DAVIDDIEU311M32M 1-99339:00/M27107
656:49:00BrisiliaJimenez320F31F 1-99339:11/M271717
758:27:00AnthonyBangloy302M37M 1-99449:28/M27107
81:02:26SandyAndrade301F46F 1-994410:05/M271717
91:02:48MicheleTabares-Nolan330F52F 1-995510:09/M271717
101:03:05KennethGatewood349M0M 0- 01510:12/M27103
111:03:10AdamSmith352M0M 0- 02610:11/M27103
121:07:08RoseBangloy303F34F 1-996610:51/M271717
131:09:44HeidiBezaire304F49F 1-997711:16/M271717
141:10:39DeniseCameron305F45F 1-998811:26/M271717
151:10:48MartyO'Clair326M41M 1-995711:26/M27107
161:10:49MarioGarcia315M49M 1-996811:26/M27107
171:14:38PaulineConrad309F57F 1-999912:04/M271717
181:19:18NimfaPana328F40F 1-99101012:49/M271717
191:19:21AmandaFisher314F32F 1-99111112:49/M271717
201:21:27YISHUFAN312M18M 1-997913:09/M27107
211:25:13KellyStainbrook329F53F 1-99121213:45/M271717
221:30:40RichardOrtiz353M0M 0- 031014:40/M27103
231:44:45LoriHicks317F59F 1-99131316:56/M271717
241:44:45CindyChristensen307F54F 1-99141416:56/M271717
251:45:41AnalisaTravaglione331F54F 1-99151517:03/M271717
261:45:42JessicaOsuna327F37F 1-99161617:03/M271717
271:45:42GretchenWirth333F54F 1-99171717:03/M271717
PlaceChipTimeFirstLastBibGenderAgeClassClass PosGen PlaceTotal PaceTot DivTot GendTot AG
11:30:10JasonReed269M0M 0- 0116:53/M46265
21:32:19BrandonBurns206M25M 1-99127:03/M462621
31:32:28SuzanneForzetting217F34F 1-99117:04/M462020
41:33:41EricGroenley271M0M 0- 0237:09/M46265
51:36:00AlanSquyres251M34M 1-99247:20/M462621
61:37:11GarySapia246M53M 1-99357:26/M462621
71:37:46YuGou219M32M 1-99467:28/M462621
81:39:30MatthewShuck249M30M 1-99577:36/M462621
91:41:31KevinSentieri247M29M 1-99687:45/M462621
101:46:41PatrickDehnart211M29M 1-99798:09/M462621
111:47:34DavidDunbar273MM 0- 03108:13/M46265
121:49:46JohnCarroll260M43M 1-998118:23/M462621
131:50:31CassielNortier-Tilly236F15F 1-99228:26/M462020
141:51:52DinahSapia245F54F 1-99338:33/M462020
151:56:50RichMoore262M47M 1-999128:56/M462621
161:57:36NicoleNortier235F46F 1-99448:59/M462020
171:58:51AlexVan Dellen256M40M 1-9910139:05/M462621
181:59:03SusanneSpano250F35F 1-99559:06/M462020
191:59:08MarlonPearson261M53M 1-9911149:06/M462621
202:04:32HeidiHarrison221F46F 1-99669:32/M462020
212:04:50LindseyCollins208M34M 1-9912159:33/M462621
222:06:19ArlaHile222F52F 1-99779:39/M462020
232:09:47JoseVasio278M0M 0- 04169:55/M46265
242:10:32LeslieLewis228F50F 1-99889:59/M462020
252:13:14LaurieReynolds240F57F 1-999910:11/M462020
262:14:27TonyReynolds241M58M 1-99131710:17/M462621
272:14:49AngelChávez207F42F 1-99101010:19/M462020
282:15:48DanTilly253M53M 1-99141810:22/M462621
292:15:50VanessaGuthrie220F22F 1-99111110:23/M462020
302:17:32AshleyTravaglione255F24F 1-99121210:30/M462020
312:19:22JeffLucero229M39M 1-99151910:39/M462621
322:22:30CalliePalm238F34F 1-99131310:53/M462020
332:22:31PeggyPalm239F64F 1-99141410:53/M462020
342:22:46MyrnaAlvarez202F62F 1-99151510:55/M462020
352:27:43AnthonyMelo231M24M 1-99162011:17/M462621
362:31:05AmyWatkins258F42F 1-99161611:33/M462020
372:31:06BrianMatis230M36M 1-99172111:33/M462621
382:33:06ChrisTrautwein254M53M 1-99182211:43/M462621
392:38:05AustinPhipps272M0M 0- 052312:05/M46265
402:38:48Henry D.Montejano232M53M 1-99192412:08/M462621
412:39:27JacobNussrallah259M30M 1-99202512:11/M462621
422:55:36BonnieVogt257F35F 1-99171713:25/M462020
433:01:28SaraAlan201F32F 1-99181813:52/M462020
443:38:21JeanieHoover224F51F 1-99191916:41/M462020
453:38:21PhilEllenbecker212M42M 1-99212616:41/M462621
463:42:20NatoshaHoover225F27F 1-99202017:00/M462020

PlaceChipTimeFirstLastBibGenderAgeClassClass PosGen PlaceTotal PaceTot DivTot GendTot AG
12:53:40JasonLee145M0M 0- 0116:38/M40307
23:32:39DeanGivens354M0M 0- 0228:08/M40307
33:38:22BryantLarsen144MM 0- 0338:20/M40307
44:08:25JimMagill142M0M 0- 0449:30/M40307
54:14:02JadeHinman114M41M 1-99159:42/M403023
64:21:24JasonTorreano128M29M 1-99269:59/M403023
74:23:57TraceyPlaster141M0M 0- 05710:05/M40307
84:24:05NatalieSiegler126F36F 1-991110:05/M401010
94:25:29BethanKeith117F28F 1-992210:08/M401010
104:28:10SusanBrewer268F51F 1-993310:15/M401010
114:28:16BlairHunter116M23M 1-993810:15/M403023
124:29:23DebbyGrizzle113F56F 1-994410:18/M401010
134:35:59SergioRuizCordova124M55M 1-994910:32/M403023
144:40:21RolandoQuinonez122M52M 1-9951010:43/M403023
154:46:05RussellMetteer140MM 0- 061110:56/M40307
164:46:11EyaFelix109F45F 1-995510:56/M401010
174:48:58MarkDenny107M63M 1-9961211:02/M403023
184:48:59MattBell102M54M 1-9971311:02/M403023
194:52:22GreggWhitnah131M64M 1-9981411:10/M403023
205:00:46JoelHelgerson137M38M 1-9991511:29/M403023
215:00:46RichardSeymour125M49M 1-99101611:29/M403023
225:03:34JohnnyHsin115M56M 1-99111711:36/M403023
235:08:38MikeReyes123M52M 1-99121811:47/M403023
245:15:11ElbriellemayWilson133F32F 1-996612:02/M401010
255:28:48BruceSwanson127M69M 1-99131912:33/M403023
265:34:14BrianHoey136M35M 1-99142012:46/M403023
275:35:10WalterBullock105M58M 1-99152112:49/M403023
285:35:38RonaldKageyama143MM 0- 072212:49/M40307
295:55:10EthanDupris108M61M 1-99162313:35/M403023
305:55:36MikeGibson112M35M 1-99172413:35/M403023
315:55:37MerriamYoung135F38F 1-997713:35/M401010
325:55:37MegWirth134F26F 1-998813:35/M401010
336:06:56BenjaminLomboy119M36M 1-99182514:01/M403023
346:12:23DAVIDFIELD110M49M 1-99192614:13/M403023
356:21:18GaryPackard121M54M 1-99202714:34/M403023
366:31:36LanceValladares129M29M 1-99212814:57/M403023
376:51:55WayneAune101M56M 1-99222915:44/M403023
386:59:04ElizabethMontegue138F46F 1-999916:00/M401010
397:29:32MargieWhitnah132F66F 1-99101017:10/M401010
408:55:20RobertOlsen120M75M 1-99233020:27/M403023